Location: Asheville, NC
(35.6000°N, 82.5500°W)
Time: 09:40:35
(UTC-04:00)

STRAND 1 - Pass Details

Date: 10 March 2018
Orbit: 769 x 780 km, 98.5° (Epoch: 24 June)

Event Time Altitude Azimuth Distance (km) Brightness Sun altitude
Rises 05:51:30 0° 117° (ESE) 3,251 ? -12.3°
Reaches altitude 10° 05:54:59 10° 92° (E) 2,329 ? -11.6°
Maximum altitude 05:57:26 14° 63° (ENE) 2,088 ? -11.1°
Drops below altitude 10° 05:59:54 10° 34° (NE) 2,336 ? -10.6°
Sets 06:03:23 0° 10° (N) 3,269 ? -9.9°
